User: anonymous   Login
Location: Deer Lake
(49.1830°N, 57.4330°W)
Time: 18:32:09
(UTC-02:-30)
Language:

Cosmos 1707 - Orbit

View from above orbital plane
View from above orbital plane
View from above satellite
View from above satellite

Ground track
Ground track

The orbit data is extracted from the following two-line orbital elements,

1 16326U 85113A   18172.66741971 -.00000050  00000-0 -45300-5 0  9990
2 16326  82.5107 205.2628 0012262 103.7654 256.4943 15.13725453773238
Epoch (UTC): 21 June 2018 16:01:05
Eccentricity: 0.0012262
inclination: 82.5107°
perigee height: 516 km
apogee height: 533 km
right ascension of ascending node: 205.2628°
argument of perigee: 103.7654°
revolutions per day: 15.13725453
mean anomaly at epoch: 256.4943°
orbit number at epoch: 77323

The dashed part of the orbit path shows where the satellite is in the earth's shadow,  

DLR